This is the latest recevied weather packets stored in our database for station/object WV5G-13. If no packets are shown the sender has not sent any weather packets the latest 10 day(s).
| Time | Temp. | Humidity | Pressure | Rain* | Wind** | Luminosity | Snow |
|---|---|---|---|---|---|---|---|
| 1777147435 | 25.56° C | 25% | 1004.8 hPa | 0 mm | - | 677 W/m² | - |
| 1777147131 | 25.56° C | 26% | 1004.7 hPa | 0 mm | - | 625 W/m² | - |
| 1777146827 | 25.56° C | 26% | 1004.8 hPa | 0 mm | - | 784 W/m² | - |
| 1777146523 | 26.11° C | 24% | 1004.8 hPa | 0 mm | - | 775 W/m² | - |
| 1777146219 | 25° C | 25% | 1004.7 hPa | 0 mm | - | 930 W/m² | - |
| 1777145914 | 25° C | 24% | 1004.8 hPa | 0 mm | - | 542 W/m² | - |
| 1777145612 | 25.56° C | 25% | 1005 hPa | 0 mm | - | 824 W/m² | - |
| 1777145305 | 25.56° C | 25% | 1005 hPa | 0 mm | - | 848 W/m² | - |
| 1777145000 | 25.56° C | 24% | 1005.1 hPa | 0 mm | - | 873 W/m² | - |
| 1777144695 | 24.44° C | 25% | 1005 hPa | 0 mm | - | 763 W/m² | - |
| 1777144389 | 24.44° C | 28% | 1005.1 hPa | 0 mm | - | 659 W/m² | - |
| 1777144086 | 25.56° C | 25% | 1005.2 hPa | 0 mm | - | 676 W/m² | - |
| 1777143782 | 25° C | 26% | 1005.1 hPa | 0 mm | - | 719 W/m² | - |
| 1777143479 | 25.56° C | 26% | 1005.1 hPa | 0 mm | - | 757 W/m² | - |
| 1777143174 | 25.56° C | 25% | 1005.1 hPa | 0 mm | - | 909 W/m² | - |
| 1777142871 | 25.56° C | 26% | 1005.2 hPa | 0 mm | - | 782 W/m² | - |
| 1777142568 | 25° C | 27% | 1005.1 hPa | 0 mm | - | 910 W/m² | - |
| 1777142266 | 25° C | 27% | 1005.2 hPa | 0 mm | - | 929 W/m² | - |
| 1777141964 | 25° C | 29% | 1005.3 hPa | 0 mm | - | 905 W/m² | - |
| 1777141661 | 24.44° C | 28% | 1005.6 hPa | 0 mm | - | 863 W/m² | - |
| 1777141359 | 24.44° C | 30% | 1005.6 hPa | 0 mm | - | 786 W/m² | - |
| 1777141055 | 25° C | 31% | 1005.3 hPa | 0 mm | - | 826 W/m² | - |
| 1777140753 | 24.44° C | 29% | 1005.4 hPa | 0 mm | - | 815 W/m² | - |
| 1777140448 | 24.44° C | 31% | 1005.4 hPa | 0 mm | - | 670 W/m² | - |
| 1777140146 | 24.44° C | 30% | 1005.7 hPa | 0 mm | - | 671 W/m² | - |
* Rain latest hour (hover to see other rain measurements)
** Current wind speed in m/s (hover to see current wind gust speed)